STARLINK-1289 (45391 NORAD) Tracking and Keplerian Element Data

This shows tracking and keplerian element data for the satellite.

Feedback or suggestion? Click here.




ElementValue
Catalog45391
NameSTARLINK-1289
Epoch Orbit1873
Epoch Day197.25001157
Epoch Year2020
RAAN49.7533
Inclination53.0014
Eccentricity0.0001826
Argument of Perigee83.1486
Mean Anonmoly30.0443
Mean Motion15.05581783
Decay Rate-0.00035188
L11 45391U 20019AH 20197.25001157 -.00035188 00000-0 -24077-2 0 9993
L22 45391 53.0014 49.7533 0001826 83.1486 30.0443 15.05581783 18731

Live tracking and technical data element details for STARLINK-1289 (NORAD 45391). STARLINK-1289 can be tracked NOW for your location showing map with azimuth and elevation plus other details from your city location.

Track the satellite on the map from your city or location and see movement details for azimuth, elevation, latitude, longitude, range, height, and movement on the map or in text.







IsCatalogInMostPopularTable: catalog: 45391, numindb: 30
Update: records affected: 1



GetName: 45391 STARLINK-1289

Hit Count: updated at: Thu, 16 Jul 2020 03:12:47 GMT